Hourly Weather Golaghat

Today, 17 May, Monday

Time Temperature Precipitation Wind Pressure Humidity
00:00 +26°C° 0 mm 1 mps 747 mmHg 81%
01:00 +26°C° 0.1 mm 1 mps 746 mmHg 83%
02:00 +25°C° 0.1 mm 1 mps 746 mmHg 85%
03:00 +25°C° 0.1 mm 1 mps 746 mmHg 88%
04:00 +25°C° 0.1 mm 1 mps 746 mmHg 88%
05:00 +25°C° 0.1 mm 1 mps 747 mmHg 87%
06:00 +26°C° 0 mm 1 mps 747 mmHg 88%
07:00 +26°C° 0.3 mm 1 mps 748 mmHg 89%
08:00 +26°C° 0.3 mm 1 mps 748 mmHg 89%
09:00 +26°C° 0.3 mm 1 mps 749 mmHg 90%
10:00 +27°C° 0.1 mm 1 mps 749 mmHg 87%
11:00 +27°C° 0.1 mm 1 mps 748 mmHg 84%
12:00 +28°C° 0.1 mm 1 mps 748 mmHg 81%
13:00 +30°C° 0 mm 1 mps 747 mmHg 73%
14:00 +31°C° 0 mm 2 mps 746 mmHg 64%
15:00 +34°C° 0 mm 2 mps 745 mmHg 56%
16:00 +32°C° 0 mm 2 mps 745 mmHg 60%
17:00 +31°C° 0 mm 1 mps 745 mmHg 65%
18:00 +30°C° 0 mm 1 mps 745 mmHg 69%
19:00 +29°C° 0.1 mm 1 mps 745 mmHg 72%
20:00 +28°C° 0.1 mm 1 mps 746 mmHg 75%
21:00 +27°C° 0.1 mm 1 mps 746 mmHg 78%
22:00 +27°C° 0 mm 1 mps 746 mmHg 79%
23:00 +27°C° 0 mm 1 mps 746 mmHg 80%

Tomorrow, 18 May, Tuesday

Time Temperature Precipitation Wind Pressure Humidity
00:00 +27°C° 0 mm 1 mps 745 mmHg 82%
01:00 +27°C° 0 mm 1 mps 745 mmHg 82%
02:00 +26°C° 0 mm 1 mps 745 mmHg 83%
03:00 +26°C° 0 mm 1 mps 744 mmHg 83%
04:00 +26°C° 0.2 mm 1 mps 745 mmHg 86%
05:00 +26°C° 0.2 mm 1 mps 745 mmHg 88%
06:00 +26°C° 0.2 mm 1 mps 746 mmHg 90%
07:00 +26°C° 0.2 mm 1 mps 746 mmHg 89%
08:00 +26°C° 0.2 mm 1 mps 747 mmHg 88%
09:00 +26°C° 0.2 mm 1 mps 747 mmHg 88%
10:00 +27°C° 0.1 mm 2 mps 747 mmHg 85%
11:00 +27°C° 0.1 mm 2 mps 747 mmHg 83%
12:00 +28°C° 0.1 mm 2 mps 746 mmHg 81%
13:00 +29°C° 0.2 mm 3 mps 746 mmHg 78%
14:00 +29°C° 0.2 mm 3 mps 745 mmHg 75%
15:00 +30°C° 0.2 mm 3 mps 745 mmHg 72%
16:00 +28°C° 0.6 mm 4 mps 745 mmHg 79%
17:00 +27°C° 0.6 mm 4 mps 744 mmHg 85%
18:00 +26°C° 0.6 mm 4 mps 744 mmHg 92%
19:00 +25°C° 0.5 mm 3 mps 745 mmHg 93%
20:00 +25°C° 0.5 mm 3 mps 746 mmHg 94%
21:00 +24°C° 0.5 mm 2 mps 746 mmHg 95%
22:00 +24°C° 0.3 mm 2 mps 746 mmHg 96%
23:00 +24°C° 0.3 mm 2 mps 746 mmHg 96%

Day after tomorrow, 19 May, Wednesday

Time Temperature Precipitation Wind Pressure Humidity
00:00 +24°C° 0.3 mm 2 mps 745 mmHg 96%
01:00 +24°C° 0.2 mm 1 mps 745 mmHg 97%
02:00 +24°C° 0.2 mm 1 mps 745 mmHg 97%
03:00 +24°C° 0.2 mm 1 mps 744 mmHg 97%
04:00 +24°C° 0.5 mm 1 mps 745 mmHg 96%
05:00 +24°C° 0.5 mm 1 mps 745 mmHg 96%
06:00 +24°C° 0.5 mm 1 mps 745 mmHg 95%
07:00 +25°C° 0.6 mm 1 mps 746 mmHg 95%
08:00 +25°C° 0.6 mm 1 mps 746 mmHg 94%
09:00 +25°C° 0.6 mm 1 mps 746 mmHg 93%
10:00 +25°C° 0.4 mm 1 mps 746 mmHg 92%
11:00 +26°C° 0.4 mm 1 mps 746 mmHg 91%
12:00 +26°C° 0.4 mm 1 mps 745 mmHg 90%
13:00 +26°C° 0.9 mm 2 mps 745 mmHg 91%
14:00 +26°C° 0.9 mm 2 mps 745 mmHg 92%
15:00 +26°C° 0.9 mm 3 mps 744 mmHg 93%
16:00 +25°C° 1 mm 2 mps 744 mmHg 94%
17:00 +25°C° 1 mm 2 mps 744 mmHg 95%
18:00 +25°C° 1 mm 2 mps 744 mmHg 96%
19:00 +25°C° 0.7 mm 2 mps 744 mmHg 97%
20:00 +24°C° 0.7 mm 2 mps 745 mmHg 97%
21:00 +24°C° 0.7 mm 2 mps 745 mmHg 97%
22:00 +24°C° 0.8 mm 1 mps 745 mmHg 97%
23:00 +24°C° 0.8 mm 1 mps 745 mmHg 98%

20 May, Thursday

Time Temperature Precipitation Wind Pressure Humidity
00:00 +22°C° 0.8 mm 0 mps 745 mmHg 98%
01:00 +24°C° 0.5 mm 1 mps 745 mmHg 98%
02:00 +24°C° 0.5 mm 1 mps 744 mmHg 98%
03:00 +24°C° 0.5 mm 1 mps 744 mmHg 98%
04:00 +24°C° 0.3 mm 1 mps 744 mmHg 98%
05:00 +24°C° 0.3 mm 1 mps 745 mmHg 98%
06:00 +24°C° 0.3 mm 1 mps 745 mmHg 97%
07:00 +25°C° 0.3 mm 1 mps 746 mmHg 96%
08:00 +25°C° 0.3 mm 1 mps 746 mmHg 95%
09:00 +26°C° 0.3 mm 1 mps 746 mmHg 93%
10:00 +26°C° 0.8 mm 1 mps 746 mmHg 91%
11:00 +27°C° 0.8 mm 1 mps 746 mmHg 89%
12:00 +28°C° 0.8 mm 2 mps 746 mmHg 86%
13:00 +28°C° 1.4 mm 2 mps 745 mmHg 87%
14:00 +28°C° 1.4 mm 2 mps 745 mmHg 88%
15:00 +28°C° 1.4 mm 2 mps 744 mmHg 89%
16:00 +27°C° 1.3 mm 2 mps 744 mmHg 91%
17:00 +27°C° 1.3 mm 2 mps 744 mmHg 93%
18:00 +26°C° 1.3 mm 2 mps 744 mmHg 94%
19:00 +26°C° 0.7 mm 2 mps 745 mmHg 95%
20:00 +25°C° 0.7 mm 2 mps 745 mmHg 96%
21:00 +25°C° 0.7 mm 2 mps 745 mmHg 96%
22:00 +25°C° 0.3 mm 1 mps 745 mmHg 97%
23:00 +25°C° 0.3 mm 1 mps 745 mmHg 98%

21 May, Friday

Time Temperature Precipitation Wind Pressure Humidity
00:00 +24°C° 0.3 mm 1 mps 745 mmHg 98%
01:00 +24°C° 0.9 mm 1 mps 745 mmHg 98%
02:00 +24°C° 0.9 mm 1 mps 744 mmHg 98%
03:00 +24°C° 0.9 mm 1 mps 744 mmHg 98%
04:00 +25°C° 0.2 mm 1 mps 744 mmHg 98%
05:00 +25°C° 0.2 mm 1 mps 745 mmHg 97%
06:00 +25°C° 0.2 mm 1 mps 745 mmHg 96%
07:00 +23°C° 0.6 mm 0 mps 745 mmHg 95%
08:00 +24°C° 0.6 mm 0 mps 746 mmHg 94%
09:00 +24°C° 0.6 mm 0 mps 746 mmHg 93%
10:00 +27°C° 0.4 mm 1 mps 746 mmHg 91%
11:00 +27°C° 0.4 mm 1 mps 745 mmHg 89%
12:00 +28°C° 0.4 mm 2 mps 745 mmHg 87%
13:00 +28°C° 0.7 mm 2 mps 744 mmHg 87%
14:00 +28°C° 0.7 mm 2 mps 744 mmHg 87%
15:00 +28°C° 0.7 mm 3 mps 743 mmHg 87%
16:00 +28°C° 0.8 mm 3 mps 743 mmHg 89%
17:00 +27°C° 0.8 mm 2 mps 743 mmHg 91%
18:00 +26°C° 0.8 mm 2 mps 743 mmHg 94%
19:00 +26°C° 0.7 mm 2 mps 743 mmHg 95%
20:00 +26°C° 0.7 mm 2 mps 744 mmHg 96%
21:00 +26°C° 0.7 mm 1 mps 744 mmHg 97%
22:00 +25°C° 0.9 mm 1 mps 744 mmHg 97%
23:00 +25°C° 0.9 mm 1 mps 744 mmHg 97%

22 May, Saturday

Time Temperature Precipitation Wind Pressure Humidity
00:00 +23°C° 0.9 mm 0 mps 744 mmHg 98%
01:00 +23°C° 0.3 mm 0 mps 743 mmHg 98%
02:00 +25°C° 0.3 mm 1 mps 743 mmHg 98%
03:00 +25°C° 0.3 mm 1 mps 743 mmHg 98%
04:00 +25°C° 0.6 mm 1 mps 743 mmHg 98%
05:00 +23°C° 0.6 mm 0 mps 744 mmHg 97%
06:00 +23°C° 0.6 mm 0 mps 744 mmHg 97%
07:00 +24°C° 0.4 mm 0 mps 744 mmHg 95%
08:00 +25°C° 0.4 mm 0 mps 745 mmHg 92%
09:00 +25°C° 0.4 mm 0 mps 745 mmHg 90%
10:00 +28°C° 0.1 mm 1 mps 745 mmHg 86%
11:00 +29°C° 0.1 mm 1 mps 744 mmHg 82%
12:00 +30°C° 0.1 mm 1 mps 744 mmHg 78%
13:00 +31°C° 0.1 mm 1 mps 743 mmHg 75%
14:00 +31°C° 0.1 mm 1 mps 742 mmHg 73%
15:00 +32°C° 0.1 mm 2 mps 742 mmHg 70%
16:00 +31°C° 0.1 mm 2 mps 742 mmHg 75%
17:00 +30°C° 0.1 mm 2 mps 741 mmHg 79%
18:00 +30°C° 0.1 mm 2 mps 741 mmHg 83%
19:00 +29°C° 0.4 mm 2 mps 742 mmHg 86%
20:00 +28°C° 0.4 mm 2 mps 743 mmHg 89%
21:00 +27°C° 0.4 mm 2 mps 743 mmHg 92%
22:00 +26°C° 0.6 mm 2 mps 743 mmHg 94%
23:00 +26°C° 0.6 mm 1 mps 743 mmHg 95%
Show more